CZ-6A DEB, 60684

Orbit data source: Space-Track

CZ-6A DEB, 60684 is space debris in LEO originally from a launch on Tue, 06 Aug 2024 UTC launched from the Taiyaun Space Center, China (TSC). Debris objects in space refer to the collection of defunct objects orbiting the Earth. Examples of debris include non-operational satellites, rocket bodies, and fragments generated from explosions, collisions, or faulty payload assembly.

Loading next visibility...
Identifier
60684, 2024-140CM
Orbit
LEO
Country
Flag of CNCN / PRC
Related business
Manufacturer
SAST
Mission
Spacecraft
Bus & Motor
Unknown
Mass
Unknown
Launch date (UTC)
2024-08-06 (2 years ago)
Launch vehicle
Unknown
Launch site
Taiyaun Space Center, China (TSC)
Object type
Payload
Rocket body
Debris
Shape & HBR
Unknown shape, 0.3 m
Radar Cross Section
Medium (>0.1 m² and <1 m²)

Expand to show TLE details & history
Last TLE update: 13 hours ago

TLE from 13 hours ago
0 CZ-6A DEB
1 60684U 24140CM  26171.28869225  .00000512  00000-0  23642-3 0  9992
2 60684  88.7896 257.5673 0057587 166.8152 193.4559 14.18544123 96350
Epoch: 2026-06-20T06:55Z
TLE epoch observation values (Epoch: 2026-06-20T06:55:43.010Z)
Latitude
Longitude
-114.86737°
Altitude
873.724 km
Speed
7.395 km/s
True Right ascension
17h 10m 16s
True Declination
0° 00' 00"
Sunlit
Object was in full shadow at epoch
Visualization orbit readout
Latitude
Unknown
Longitude
Unknown
Altitude
Unknown
Speed
Unknown
Apparent Right ascension
Unknown
Apparent Declination
Unknown
Sunlit
N/A
Visualization observer readout
Local Sidereal Time
07:19:54
Azimuth
Unknown
Elevation
Unknown
Doppler factor
Unknown
Orbital elements
Apogee altitude
868.729 km
Perigee altitude
785.742 km
Semi-major axis
7,205.372 km
Eccentricity
0.00576
Inclination
88.7896°
RAAN
257.5673°
Arg. of periapsis
166.8152°
True anomaly
193.30341°
Mean anomaly
193.4559°
Eccentric anomaly
193.37955°
Mean motion
3.54861 °/min
Orbital period
101.45 mins
BSTAR
0.00023642
Loading maneuver chart data...
Computing Atmospheric mass density...
Loading historical data...
Loading historical data...
Loading historical data...
Loading historical data...
Loading historical data...
Loading historical data...
Loading historical data...

Documentation

Showing up to 5 results
|